This is the latest recevied weather packets stored in our database for station/object KI6PPU. If no packets are shown the sender has not sent any weather packets the latest 10 day(s).
| Time | Temp. | Humidity | Pressure | Rain* | Wind** | Luminosity | Snow |
|---|---|---|---|---|---|---|---|
| 1777910338 | 12.22° C | 84% | 1017.6 hPa | 0 mm | - | 33 W/m² | - |
| 1777910035 | 12.22° C | 85% | 1017.6 hPa | 0 mm | - | 37 W/m² | - |
| 1777909732 | 11.67° C | 84% | 1017.6 hPa | 0 mm | - | 39 W/m² | - |
| 1777909429 | 11.67° C | 83% | 1017.5 hPa | 0 mm | - | 35 W/m² | - |
| 1777909127 | 11.67° C | 83% | 1017.5 hPa | 0 mm | - | 39 W/m² | - |
| 1777908825 | 11.67° C | 83% | 1017.4 hPa | 0 mm | - | 46 W/m² | - |
| 1777908521 | 11.67° C | 84% | 1017.4 hPa | 0 mm | - | 50 W/m² | - |
| 1777908218 | 11.67° C | 83% | 1017.4 hPa | 0 mm | - | 49 W/m² | - |
| 1777907914 | 11.67° C | 83% | 1017.4 hPa | 0 mm | - | 43 W/m² | - |
| 1777907610 | 11.67° C | 84% | 1017.2 hPa | 0 mm | - | 43 W/m² | - |
| 1777907306 | 12.22° C | 84% | 1017.2 hPa | 0 mm | - | 66 W/m² | - |
| 1777907002 | 11.67° C | 85% | 1017.3 hPa | 0 mm | - | 95 W/m² | - |
| 1777906700 | 11.67° C | 84% | 1017.3 hPa | 0 mm | - | 70 W/m² | - |
| 1777906396 | 11.67° C | 85% | 1017.3 hPa | 0 mm | - | 71 W/m² | - |
| 1777906093 | 11.67° C | 85% | 1017.3 hPa | 0 mm | - | 89 W/m² | - |
| 1777905789 | 11.67° C | 85% | 1017 hPa | 0 mm | - | 87 W/m² | - |
| 1777905487 | 11.67° C | 86% | 1016.9 hPa | 0 mm | - | 89 W/m² | - |
| 1777905184 | 11.67° C | 87% | 1017.3 hPa | 0 mm | - | 77 W/m² | - |
| 1777904881 | 11.67° C | 87% | 1017.2 hPa | 0 mm | - | 69 W/m² | - |
| 1777904578 | 11.11° C | 87% | 1017.1 hPa | 0 mm | - | 62 W/m² | - |
| 1777904275 | 11.11° C | 87% | 1017.3 hPa | 0 mm | - | 66 W/m² | - |
| 1777903973 | 11.11° C | 88% | 1017.1 hPa | 0 mm | - | 49 W/m² | - |
| 1777903669 | 11.11° C | 88% | 1017.2 hPa | 0 mm | - | 29 W/m² | - |
| 1777903365 | 11.11° C | 88% | 1017.1 hPa | 0 mm | - | 18 W/m² | - |
| 1777903061 | 11.11° C | 88% | 1017.1 hPa | 0 mm | - | 18 W/m² | - |
* Rain latest hour (hover to see other rain measurements)
** Current wind speed in m/s (hover to see current wind gust speed)